"Timestamp","TZ","WindDir_Mean (deg)","WindSpd_Mean (km/h)","WindSpd_Min (km/h)","WindSpd_Max (km/h)","Temp_Mean (deg)","RH_Mean (%)","MSLP_Mean (hPa)","Rain_Acc (mm)","Rain_Intensity (mm/h)","Hail_Acc (hits/cm2)","Hail_Intensity (hits/cm2hr)","Solar_Mean (W/m2)"
2022/09/05 00:00:00.008,n,299,5.04,3.96,6.48,14.1,58.6,1020.82,0,0,0,0,0.022621
2022/09/05 00:01:00.001,n,221,5.4,4.32,6.48,14,56.8,1020.92,0,0,0,0,0.023537
2022/09/05 00:02:00.001,n,234,6.84,6.12,7.2,14,57.3,1020.92,0,0,0,0,0.026131
2022/09/05 00:03:00.001,n,157,3.24,1.44,4.68,14,57.3,1020.92,0,0,0,0,0.022621
2022/09/05 00:04:00.001,n,217,2.16,1.08,3.96,14,57.1,1020.92,0,0,0,0,0.025253
2022/09/05 00:05:00.002,n,150,3.24,2.16,4.68,14,57.9,1020.92,0,0,0,0,0.021782
2022/09/05 00:06:00.003,n,259,6.48,2.16,7.56,14,57.7,1020.92,0,0,0,0,0.023537
2022/09/05 00:07:00.005,n,246,2.52,2.16,2.88,13.9,57.4,1020.92,0,0,0,0,0.023537
2022/09/05 00:08:00.010,n,278,5.76,4.32,6.84,13.9,57.9,1020.92,0,0,0,0,0.022621
2022/09/05 00:09:00.003,n,167,9.72,6.84,14.04,13.9,56.9,1021.02,0,0,0,0,0.025253
2022/09/05 00:10:00.002,n,314,2.52,0.72,5.4,14,57.1,1021.02,0,0,0,0,0.023537
2022/09/05 00:11:00.002,n,283,1.44,1.08,1.8,14,57.1,1021.02,0,0,0,0,0.022621
2022/09/05 00:12:00.001,n,165,10.440002,5.04,14.04,14,57.1,1021.02,0,0,0,0,0.019188
2022/09/05 00:13:00.001,n,182,1.08,0.36,4.68,14,57.7,1021.02,0,0,0,0,0.020905
2022/09/05 00:14:00.005,n,169,3.24,1.8,5.04,14,57.6,1021.02,0,0,0,0,0.020027
2022/09/05 00:15:00.006,n,300,4.32,1.44,6.84,14,57.5,1021.02,0,0,0,0,0.020027
2022/09/05 00:16:00.008,n,152,3.24,1.44,8.28,13.9,57.1,1021.02,0,0,0,0,0.020027
2022/09/05 00:17:00.012,n,186,3.96,2.16,6.12,13.9,57.8,1021.02,0,0,0,0,0.017395
2022/09/05 00:18:00.013,n,323,2.52,0.72,3.24,13.9,58.5,1021.02,0,0,0,0,0.020905
2022/09/05 00:19:00.001,n,254,2.52,1.08,3.96,13.9,57.7,1020.92,0,0,0,0,0.024376
2022/09/05 00:20:00.001,n,243,2.88,1.44,4.32,13.9,58,1020.92,0,0,0,0,0.017395
2022/09/05 00:21:00.002,n,285,9,6.48,11.16,13.9,58,1020.92,0,0,0,0,0.020905
2022/09/05 00:22:00.001,n,169,3.24,2.16,4.68,13.9,57.6,1020.92,0,0,0,0,0.022621
2022/09/05 00:23:00.001,n,270,3.24,0.72,6.48,13.9,57.5,1020.92,0,0,0,0,0.020027
2022/09/05 00:24:00.010,n,164,1.44,0.36,5.4,13.9,57.4,1020.82,0,0,0,0,0.021782
2022/09/05 00:25:00.013,n,287,4.68,1.44,6.12,13.9,57.7,1020.82,0,0,0,0,0.020905
2022/09/05 00:26:00.013,n,278,3.96,2.52,4.68,13.9,57.9,1020.82,0,0,0,0,0.020027
2022/09/05 00:27:00.015,n,186,2.52,0.72,4.32,13.9,57.8,1020.82,0,0,0,0,0.022659
2022/09/05 00:28:00.002,n,185,6.84,5.76,10.08,13.9,57.4,1020.82,0,0,0,0,0.026131
2022/09/05 00:29:00.001,n,245,4.68,1.44,7.92,13.9,57.8,1020.82,0,0,0,0,0.027885
2022/09/05 00:30:00.001,n,258,5.4,1.8,7.2,13.9,57.6,1020.82,0,0,0,0,0.023537
2022/09/05 00:31:00.002,n,331,1.8,0.36,3.96,13.9,57.8,1020.82,0,0,0,0,0.025253
2022/09/05 00:32:00.007,n,293,3.96,3.24,5.04,13.8,57.9,1020.82,0,0,0,0,0.027008
2022/09/05 00:33:00.011,n,157,5.04,2.16,6.84,13.8,57.8,1020.82,0,0,0,0,0.027008
2022/09/05 00:34:00.013,n,288,5.4,3.6,7.56,13.8,58.1,1020.82,0,0,0,0,0.025253
2022/09/05 00:35:00.013,n,147,3.96,2.52,5.04,13.8,57.9,1020.82,0,0,0,0,0.025253
2022/09/05 00:36:00.010,n,274,2.52,2.16,2.88,13.8,58.7,1020.82,0,0,0,0,0.025253
2022/09/05 00:37:00.001,n,244,5.76,5.4,6.12,13.8,58.3,1020.82,0,0,0,0,0.023537
2022/09/05 00:38:00.001,n,251,1.8,0.72,2.88,13.8,58.6,1020.82,0,0,0,0,0.029602
2022/09/05 00:39:00.001,n,293,1.8,0.72,3.6,13.8,58.6,1020.82,0,0,0,0,0.025253
2022/09/05 00:40:00.002,n,170,2.16,1.08,2.88,13.8,58.4,1020.92,0,0,0,0,0.022659
2022/09/05 00:41:00.005,n,190,6.12,3.96,7.92,13.8,58.2,1020.82,0,0,0,0,0.020905
2022/09/05 00:42:00.008,n,164,3.24,1.8,4.32,13.8,58.1,1020.92,0,0,0,0,0.021782
2022/09/05 00:43:00.001,n,185,3.24,2.16,6.84,13.8,58.2,1020.92,0,0,0,0,0.024376
2022/09/05 00:44:00.003,n,144,3.6,2.52,4.68,13.8,58.1,1020.92,0,0,0,0,0.025253
2022/09/05 00:45:00.004,n,167,5.4,3.24,8.28,13.8,57.9,1020.92,0,0,0,0,0.024376
2022/09/05 00:46:00.001,n,269,8.28,7.92,8.64,13.8,58.1,1020.92,0,0,0,0,0.024376
2022/09/05 00:47:00.001,n,224,6.48,2.88,9.36,13.8,58,1020.92,0,0,0,0,0.022659
2022/09/05 00:48:00.001,n,313,1.44,0.72,5.04,13.8,58.2,1020.92,0,0,0,0,0.024376
2022/09/05 00:49:00.001,n,327,1.8,1.44,2.16,13.8,58.3,1020.92,0,0,0,0,0.024376
2022/09/05 00:50:00.001,n,134,3.6,2.52,4.32,13.8,58.7,1020.92,0,0,0,0,0.020905
2022/09/05 00:51:00.002,n,356,1.8,0.72,4.68,13.7,58.7,1020.92,0,0,0,0,0.019188
2022/09/05 00:52:00.006,n,211,4.68,3.6,5.4,13.7,58.3,1020.92,0,0,0,0,0.019188
2022/09/05 00:53:00.006,n,286,3.6,2.88,4.32,13.7,58.4,1020.92,0,0,0,0,0.022659
2022/09/05 00:54:00.008,n,284,1.08,0.36,1.44,13.7,59,1020.92,0,0,0,0,0.020905
2022/09/05 00:55:00.001,n,197,0.72,0.36,1.44,13.7,58.4,1020.92,0,0,0,0,0.020027
2022/09/05 00:56:00.001,n,249,6.12,5.04,6.84,13.8,58.3,1021.02,0,0,0,0,0.022659
2022/09/05 00:57:00.001,n,153,3.96,1.8,6.12,13.7,58.4,1021.02,0,0,0,0,0.022659
2022/09/05 00:58:00.001,n,177,6.84,3.24,9,13.7,58.3,1021.02,0,0,0,0,0.024376
2022/09/05 00:59:00.004,n,299,3.24,2.52,4.32,13.7,59,1021.02,0,0,0,0,0.020027
2022/09/05 01:00:00.006,n,238,1.44,0.72,3.24,13.7,59.5,1021.02,0,0,0,0,0.023537
2022/09/05 01:01:00.007,n,255,5.04,4.68,5.76,13.7,58.8,1021.02,0,0,0,0,0.024376
2022/09/05 01:02:00.008,n,231,5.04,3.96,6.84,13.7,58.6,1021.02,0,0,0,0,0.023537
2022/09/05 01:03:00.009,n,232,3.24,1.08,4.68,13.7,58.7,1021.02,0,0,0,0,0.020905
2022/09/05 01:04:00.001,n,302,3.96,2.88,6.12,13.6,59.7,1021.02,0,0,0,0,0.018311
2022/09/05 01:05:00.001,n,264,6.12,4.68,6.84,13.6,58.7,1021.02,0,0,0,0,0.020027
2022/09/05 01:06:00.006,n,266,6.48,5.76,7.56,13.6,58.7,1021.02,0,0,0,0,0.019188
2022/09/05 01:07:00.008,n,244,7.56,7.2,8.64,13.6,58.7,1021.02,0,0,0,0,0.019188
2022/09/05 01:08:00.001,n,246,6.84,2.16,10.08,13.6,58.4,1021.02,0,0,0,0,0.020905
2022/09/05 01:09:00.001,n,167,2.52,1.8,3.6,13.6,58.5,1021.02,0,0,0,0,0.020027
2022/09/05 01:10:00.006,n,269,3.24,0,4.68,13.6,58.5,1021.02,0,0,0,0,0.024376
2022/09/05 01:11:00.009,n,165,2.52,1.08,4.68,13.6,59.2,1020.92,0,0,0,0,0.020027
2022/09/05 01:12:00.011,n,304,3.96,2.52,5.4,13.6,59.9,1020.92,0,0,0,0,0.020027
2022/09/05 01:13:00.001,n,305,5.76,5.4,7.2,13.6,60.2,1020.92,0,0,0,0,0.019188
2022/09/05 01:14:00.001,n,170,1.08,0.36,5.4,13.6,58.8,1020.92,0,0,0,0,0.019188
2022/09/05 01:15:00.001,n,266,3.24,0.36,8.28,13.6,59.6,1020.82,0,0,0,0,0.018311
2022/09/05 01:16:00.001,n,252,5.04,1.08,6.48,13.6,59,1020.92,0,0,0,0,0.020905
2022/09/05 01:17:00.001,n,208,4.68,3.6,6.48,13.6,58.7,1020.92,0,0,0,0,0.016556
2022/09/05 01:18:00.001,n,136,3.24,2.52,4.68,13.6,58.8,1020.92,0,0,0,0,0.016556
2022/09/05 01:19:00.003,n,194,2.88,1.08,4.32,13.6,58.6,1020.82,0,0,0,0,0.019188
2022/09/05 01:20:00.004,n,145,2.16,1.8,2.52,13.6,59,1020.82,0,0,0,0,0.020027
2022/09/05 01:21:00.007,n,232,2.16,1.44,2.88,13.6,58.9,1020.92,0,0,0,0,0.017395
2022/09/05 01:22:00.002,n,140,1.44,1.08,1.8,13.6,59,1020.92,0,0,0,0,0.014839
2022/09/05 01:23:00.002,n,346,2.88,1.08,6.12,13.6,59.1,1020.92,0,0,0,0,0.026131
2022/09/05 01:24:00.006,n,150,5.4,2.52,7.56,13.6,59.8,1020.92,0,0,0,0,0.026131
2022/09/05 01:25:00.001,n,152,5.4,2.16,9.36,13.6,58.9,1020.92,0,0,0,0,0.024376
2022/09/05 01:26:00.010,n,121,4.68,2.52,5.76,13.6,58.6,1020.92,0,0,0,0,0.028725
2022/09/05 01:27:00.012,n,24,1.8,0.72,5.4,13.6,58.8,1020.92,0,0,0,0,0.02697
2022/09/05 01:28:00.014,n,295,4.32,2.52,6.12,13.6,59.1,1020.92,0,0,0,0,0.026131
2022/09/05 01:29:00.015,n,165,4.32,0.72,6.84,13.6,58.7,1020.92,0,0,0,0,0.030479
2022/09/05 01:30:00.011,n,157,3.24,2.88,3.6,13.6,58.5,1020.92,0,0,0,0,0.027847
2022/09/05 01:31:00.001,n,197,2.52,1.8,3.6,13.6,58.7,1020.92,0,0,0,0,0.024376
2022/09/05 01:32:00.001,n,288,7.56,5.04,10.440002,13.6,59.2,1020.92,0,0,0,0,0.025253
2022/09/05 01:33:00.001,n,256,2.88,0.72,5.76,13.6,59,1020.92,0,0,0,0,0.027847
2022/09/05 01:34:00.004,n,111,4.32,3.6,5.04,13.6,59,1021.02,0,0,0,0,0.029602
2022/09/05 01:35:00.005,n,282,4.68,3.6,5.4,13.6,58.7,1021.02,0,0,0,0,0.025253
2022/09/05 01:36:00.008,n,114,0.72,0.36,1.08,13.6,58.9,1021.02,0,0,0,0,0.022621
2022/09/05 01:37:00.011,n,255,1.44,0.72,4.32,13.6,59.7,1021.02,0,0,0,0,0.025253
2022/09/05 01:38:00.013,n,144,2.52,1.44,5.4,13.5,59,1021.02,0,0,0,0,0.026131
2022/09/05 01:39:00.017,n,164,6.48,2.52,7.2,13.5,58.8,1021.02,0,0,0,0,0.022621
2022/09/05 01:40:00.002,n,265,6.84,5.76,8.28,13.5,58.8,1021.02,0,0,0,0,0.02697
2022/09/05 01:41:00.002,n,238,6.12,3.6,8.64,13.5,59,1021.02,0,0,0,0,0.026131
2022/09/05 01:42:00.001,n,254,10.08,9.36,11.16,13.5,58.8,1021.02,0,0,0,0,0.026131
2022/09/05 01:43:00.002,n,279,4.32,2.52,5.4,13.5,59.2,1021.02,0,0,0,0,0.025253
2022/09/05 01:44:00.003,n,75,2.16,1.08,4.68,13.5,59.2,1020.92,0,0,0,0,0.022621
2022/09/05 01:45:00.006,n,237,5.76,4.32,6.84,13.5,59.2,1020.92,0,0,0,0,0.023499
2022/09/05 01:46:00.008,n,300,3.96,2.52,4.68,13.5,59.6,1020.92,0,0,0,0,0.020905
2022/09/05 01:47:00.011,n,200,2.88,0.36,5.4,13.5,59.6,1020.92,0,0,0,0,0.026131
2022/09/05 01:48:00.016,n,279,5.4,4.32,6.12,13.5,59.4,1020.92,0,0,0,0,0.024376
2022/09/05 01:49:00.002,n,303,2.88,2.16,3.96,13.5,59.1,1020.82,0,0,0,0,0.022621
2022/09/05 01:50:00.001,n,264,11.88,8.64,16.56,13.5,59,1020.82,0,0,0,0,0.026131
2022/09/05 01:51:00.001,n,155,3.24,0.36,5.04,13.5,60.3,1020.82,0,0,0,0,0.025253
2022/09/05 01:52:00.002,n,257,3.96,1.8,5.76,13.5,59.3,1020.82,0,0,0,0,0.025253
2022/09/05 01:53:00.001,n,6,2.52,0.72,3.96,13.5,59.4,1020.82,0,0,0,0,0.025253
2022/09/05 01:54:00.002,n,144,2.88,1.44,6.84,13.5,59.5,1020.82,0,0,0,0,0.02697
2022/09/05 01:55:00.002,n,23,1.08,0.36,2.16,13.5,60,1020.82,0,0,0,0,0.024376
2022/09/05 01:56:00.004,n,157,2.16,0.36,5.04,13.5,59.9,1020.82,0,0,0,0,0.025253
2022/09/05 01:57:00.018,n,256,1.44,0.36,2.88,13.4,59.5,1020.82,0,0,0,0,0.02697
2022/09/05 01:58:00.002,n,274,7.92,6.84,8.64,13.4,59.8,1020.82,0,0,0,0,0.025253
2022/09/05 01:59:00.004,n,244,4.68,2.16,6.12,13.4,59.8,1020.82,0,0,0,0,0.023499
2022/09/05 02:00:00.005,n,194,2.16,0.72,4.68,13.4,59.8,1020.72,0,0,0,0,0.024376
2022/09/05 02:01:00.006,n,226,7.92,7.2,8.64,13.4,59.8,1020.72,0,0,0,0,0.023499
2022/09/05 02:02:00.007,n,220,2.52,1.08,3.6,13.4,59.8,1020.82,0,0,0,0,0.025253
2022/09/05 02:03:00.001,n,231,6.48,4.68,8.28,13.4,59.8,1020.72,0,0,0,0,0.024376
2022/09/05 02:04:00.005,n,283,2.16,0.72,3.6,13.4,61.3,1020.72,0,0,0,0,0.020027
2022/09/05 02:05:00.013,n,108,2.52,0,3.96,13.4,60.3,1020.72,0,0,0,0,0.020905
2022/09/05 02:06:00.016,n,196,1.8,0.36,6.48,13.4,59.9,1020.72,0,0,0,0,0.021782
2022/09/05 02:07:00.002,n,217,1.08,0,2.16,13.4,60.4,1020.72,0,0,0,0,0.024376
2022/09/05 02:08:00.001,n,141,3.6,1.8,6.84,13.4,60.1,1020.72,0,0,0,0,0.020905
2022/09/05 02:09:00.001,n,22,2.88,0.72,5.76,13.4,59.8,1020.72,0,0,0,0,0.01915
2022/09/05 02:10:00.001,n,283,3.24,1.8,3.6,13.4,60.3,1020.72,0,0,0,0,0.023499
2022/09/05 02:11:00.001,n,160,2.16,0.72,6.12,13.4,60.1,1020.72,0,0,0,0,0.020027
2022/09/05 02:12:00.001,n,201,4.32,3.6,5.76,13.4,60.1,1020.72,0,0,0,0,0.020027
2022/09/05 02:13:00.001,n,246,4.32,1.8,5.4,13.4,60.1,1020.62,0,0,0,0,0.021782
2022/09/05 02:14:00.004,n,154,2.88,1.08,3.96,13.4,60,1020.62,0,0,0,0,0.022621
2022/09/05 02:15:00.006,n,242,4.32,2.16,5.4,13.4,60.1,1020.62,0,0,0,0,0.022621
2022/09/05 02:16:00.002,n,255,2.88,2.52,3.24,13.4,60.4,1020.62,0,0,0,0,0.021782
2022/09/05 02:17:00.001,n,161,2.88,0.72,4.32,13.4,60.9,1020.62,0,0,0,0,0.022621
2022/09/05 02:18:00.001,n,168,3.6,1.08,6.84,13.4,60.6,1020.62,0,0,0,0,0.018272
2022/09/05 02:19:00.001,n,168,5.76,2.88,8.28,13.4,60.3,1020.62,0,0,0,0,0.020905
2022/09/05 02:20:00.001,n,265,3.6,1.44,4.32,13.3,60.2,1020.62,0,0,0,0,0.016556
2022/09/05 02:21:00.003,n,219,6.48,5.04,8.28,13.3,60.2,1020.52,0,0,0,0,0.021782
2022/09/05 02:22:00.006,n,196,3.96,2.16,5.04,13.3,60.3,1020.52,0,0,0,0,0.023499
2022/09/05 02:23:00.009,n,216,2.16,0.72,5.76,13.3,60.7,1020.52,0,0,0,0,0.018272
2022/09/05 02:24:00.012,n,166,6.48,5.76,7.2,13.3,60.5,1020.62,0,0,0,0,0.017395
2022/09/05 02:25:00.001,n,189,5.4,2.16,7.56,13.3,60.4,1020.62,0,0,0,0,0.018272
2022/09/05 02:26:00.001,n,131,5.04,3.24,6.84,13.3,60.5,1020.52,0,0,0,0,0.017395
2022/09/05 02:27:00.004,n,286,1.44,0.72,2.52,13.3,60.4,1020.52,0,0,0,0,0.022621
2022/09/05 02:28:00.001,n,218,1.44,0,2.88,13.3,60.7,1020.52,0,0,0,0,0.016556
2022/09/05 02:29:00.002,n,152,5.76,3.6,8.64,13.3,60.6,1020.52,0,0,0,0,0.01915
2022/09/05 02:30:00.004,n,320,2.88,0.36,5.76,13.4,61.3,1020.52,0,0,0,0,0.020027
2022/09/05 02:31:00.006,n,356,2.52,1.08,3.96,13.4,60.9,1020.42,0,0,0,0,0.017395
2022/09/05 02:32:00.010,n,216,3.24,2.16,5.4,13.4,60.5,1020.42,0,0,0,0,0.01915
2022/09/05 02:33:00.013,n,301,3.6,1.44,4.32,13.4,60.3,1020.42,0,0,0,0,0.020905
2022/09/05 02:34:00.001,n,297,3.6,2.52,4.32,13.3,60.6,1020.42,0,0,0,0,0.016556
2022/09/05 02:35:00.001,n,187,3.6,2.88,5.04,13.4,60.6,1020.42,0,0,0,0,0.016556
2022/09/05 02:36:00.004,n,175,5.04,2.88,6.48,13.4,60.5,1020.42,0,0,0,0,0.020027
2022/09/05 02:37:00.002,n,201,3.6,2.88,4.32,13.4,61,1020.42,0,0,0,0,0.017395
2022/09/05 02:38:00.003,n,141,3.96,1.8,5.04,13.3,60.5,1020.52,0,0,0,0,0.017395
2022/09/05 02:39:00.008,n,149,12.24,4.68,18,13.3,60.5,1020.52,0,0,0,0,0.015678
2022/09/05 02:40:00.001,n,243,3.6,1.8,5.04,13.3,60.6,1020.52,0,0,0,0,0.016556
2022/09/05 02:41:00.001,n,185,4.32,2.52,5.76,13.3,60.8,1020.52,0,0,0,0,0.016556
2022/09/05 02:42:00.005,n,264,5.4,3.96,7.92,13.3,60.7,1020.52,0,0,0,0,0.016556
2022/09/05 02:43:00.001,n,260,1.8,1.44,3.96,13.3,60.9,1020.52,0,0,0,0,0.023537
2022/09/05 02:44:00.001,n,278,6.12,3.6,7.2,13.3,60.9,1020.42,0,0,0,0,0.02697
2022/09/05 02:45:00.002,n,152,2.16,0.36,7.2,13.3,60.7,1020.52,0,0,0,0,0.029602
2022/09/05 02:46:00.001,n,263,4.68,4.32,5.04,13.3,60.7,1020.52,0,0,0,0,0.028725
2022/09/05 02:47:00.001,n,215,3.24,2.88,3.6,13.3,60.7,1020.42,0,0,0,0,0.034828
2022/09/05 02:48:00.004,n,287,4.68,4.32,5.4,13.3,60.8,1020.42,0,0,0,0,0.028725
2022/09/05 02:49:00.007,n,194,5.04,2.52,6.84,13.2,60.8,1020.42,0,0,0,0,0.027885
2022/09/05 02:50:00.010,n,198,2.52,1.08,4.32,13.2,61,1020.42,0,0,0,0,0.029602
2022/09/05 02:51:00.014,n,249,6.84,3.96,8.28,13.2,60.9,1020.42,0,0,0,0,0.02697
2022/09/05 02:52:00.001,n,305,5.4,4.68,6.48,13.2,61,1020.32,0,0,0,0,0.031319
2022/09/05 02:53:00.003,n,189,2.16,0.36,6.12,13.2,60.8,1020.32,0,0,0,0,0.026093
2022/09/05 02:54:00.006,n,132,4.32,0.72,6.84,13.3,60.6,1020.32,0,0,0,0,0.029602
2022/09/05 02:55:00.001,n,184,5.04,3.96,7.2,13.3,60.6,1020.32,0,0,0,0,0.02697
2022/09/05 02:56:00.010,n,183,3.96,1.44,4.68,13.3,60.6,1020.32,0,0,0,0,0.027885
2022/09/05 02:57:00.001,n,162,14.76,7.2,22.319998,13.3,60.2,1020.32,0,0,0,0,0.029602
2022/09/05 02:58:00.014,n,23,2.52,1.08,3.96,13.4,60.3,1020.32,0,0,0,0,0.024376
2022/09/05 02:59:00.002,n,155,2.16,0.36,5.4,13.4,60.2,1020.32,0,0,0,0,0.027885
2022/09/05 03:00:00.007,n,336,7.56,3.24,8.28,13.4,60.4,1020.32,0,0,0,0,0.028725
2022/09/05 03:01:00.001,n,58,2.16,0.72,5.04,13.4,60.4,1020.32,0,0,0,0,0.029602
2022/09/05 03:02:00.001,n,281,3.6,1.44,6.48,13.4,61.5,1020.32,0,0,0,0,0.028725
2022/09/05 03:03:00.001,n,153,2.88,2.16,3.6,13.4,59.9,1020.32,0,0,0,0,0.026093
2022/09/05 03:04:00.001,n,160,2.16,0.72,6.84,13.4,60.2,1020.32,0,0,0,0,0.029602
2022/09/05 03:05:00.001,n,270,2.88,1.44,3.6,13.4,59.9,1020.32,0,0,0,0,0.024376
2022/09/05 03:06:00.001,n,281,2.16,1.44,3.24,13.4,59.9,1020.42,0,0,0,0,0.026093
2022/09/05 03:07:00.002,n,176,6.48,3.24,7.56,13.4,59.9,1020.42,0,0,0,0,0.027885
2022/09/05 03:08:00.007,n,184,5.4,2.52,7.56,13.4,59.7,1020.32,0,0,0,0,0.024376
2022/09/05 03:09:00.008,n,207,3.6,2.16,4.68,13.4,59.9,1020.32,0,0,0,0,0.028725
2022/09/05 03:10:00.001,n,179,5.04,2.88,8.64,13.3,59.6,1020.32,0,0,0,0,0.027885
2022/09/05 03:11:00.001,n,176,3.6,1.08,6.84,13.3,59.8,1020.32,0,0,0,0,0.024376
2022/09/05 03:12:00.002,n,208,9,7.2,11.88,13.3,59.7,1020.32,0,0,0,0,0.027885
2022/09/05 03:13:00.002,n,175,9.72,6.12,12.24,13.3,59.9,1020.22,0,0,0,0,0.023537
2022/09/05 03:14:00.002,n,195,6.12,4.68,8.64,13.3,59.8,1020.22,0,0,0,0,0.027885
2022/09/05 03:15:00.009,n,183,10.8,10.440002,11.16,13.3,59.3,1020.12,0,0,0,0,0.025253
2022/09/05 03:16:00.012,n,108,5.04,3.6,6.12,13.4,59.2,1020.12,0,0,0,0,0.023537
2022/09/05 03:17:00.011,n,193,9.72,8.64,14.4,13.4,58.9,1020.02,0,0,0,0,0.025253
2022/09/05 03:18:00.014,n,154,12.6,8.28,16.2,13.4,58.9,1020.02,0,0,0,0,0.025253
2022/09/05 03:19:00.002,n,164,3.96,1.08,10.8,13.4,58.8,1020.02,0,0,0,0,0.025253
2022/09/05 03:20:00.001,n,184,8.64,6.48,11.88,13.4,58.7,1020.02,0,0,0,0,0.020905
2022/09/05 03:21:00.001,n,134,2.52,1.44,3.6,13.4,58.7,1020.02,0,0,0,0,0.023537
2022/09/05 03:22:00.002,n,148,5.4,1.8,8.64,13.4,58.7,1020.02,0,0,0,0,0.026093
2022/09/05 03:23:00.001,n,169,13.68,11.52,18,13.4,58.6,1020.02,0,0,0,0,0.020905
2022/09/05 03:24:00.001,n,223,6.48,4.32,9.36,13.4,58.7,1020.12,0,0,0,0,0.021744
2022/09/05 03:25:00.003,n,217,2.16,0.72,6.84,13.4,58.6,1020.02,0,0,0,0,0.025253
2022/09/05 03:26:00.003,n,214,9.72,9,11.16,13.4,58.6,1020.02,0,0,0,0,0.022621
2022/09/05 03:27:00.015,n,200,7.2,5.76,9.72,13.4,58.7,1020.12,0,0,0,0,0.020027
2022/09/05 03:28:00.002,n,273,3.96,3.96,3.96,13.4,59.2,1020.12,0,0,0,0,0.020905
2022/09/05 03:29:00.002,n,304,2.52,0.72,5.4,13.4,59.6,1020.12,0,0,0,0,0.021744
2022/09/05 03:30:00.001,n,164,8.28,5.4,10.8,13.4,59.2,1020.12,0,0,0,0,0.025253
2022/09/05 03:31:00.004,n,163,6.84,4.68,11.16,13.3,59.1,1020.12,0,0,0,0,0.022621
2022/09/05 03:32:00.006,n,292,1.08,0.72,1.44,13.3,59.3,1020.12,0,0,0,0,0.024376
2022/09/05 03:33:00.008,n,175,3.96,3.24,5.04,13.3,59.3,1020.12,0,0,0,0,0.022621
2022/09/05 03:34:00.011,n,144,2.88,0.72,5.4,13.3,59.8,1020.12,0,0,0,0,0.024376
2022/09/05 03:35:00.015,n,330,3.6,1.44,6.12,13.3,60,1020.02,0,0,0,0,0.025253
2022/09/05 03:36:00.015,n,211,5.4,4.68,9,13.2,59.3,1020.02,0,0,0,0,0.020905
2022/09/05 03:37:00.001,n,174,6.84,3.24,8.64,13.2,59.6,1019.92,0,0,0,0,0.024376
2022/09/05 03:38:00.001,n,170,6.84,2.88,9,13.2,59.6,1019.92,0,0,0,0,0.021744
2022/09/05 03:39:00.005,n,72,3.24,1.8,6.12,13.1,59.6,1019.92,0,0,0,0,0.027008
2022/09/05 03:40:00.001,n,185,9.36,7.56,14.4,13.1,59.5,1019.92,0,0,0,0,0.031357
2022/09/05 03:41:00.002,n,126,1.8,0.72,4.68,13.1,59.8,1019.92,0,0,0,0,0.027008
2022/09/05 03:42:00.001,n,107,1.08,0.36,1.44,13.1,60,1019.92,0,0,0,0,0.027008
2022/09/05 03:43:00.012,n,125,2.88,1.08,5.04,13.1,60.1,1019.92,0,0,0,0,0.030479
2022/09/05 03:44:00.013,n,201,1.08,0.72,1.44,13,60.3,1019.92,0,0,0,0,0.025253
2022/09/05 03:45:00.016,n,152,2.52,1.8,3.6,13,60.2,1019.92,0,0,0,0,0.028725
2022/09/05 03:46:00.002,n,155,5.04,2.16,6.84,13,60.2,1019.92,0,0,0,0,0.027885
2022/09/05 03:47:00.004,n,168,5.76,2.16,6.48,13,60.6,1019.92,0,0,0,0,0.027008
2022/09/05 03:48:00.001,n,153,7.2,4.68,11.16,12.9,60.6,1019.92,0,0,0,0,0.027885
2022/09/05 03:49:00.001,n,167,6.48,2.88,7.92,12.9,60.7,1020.02,0,0,0,0,0.033073
2022/09/05 03:50:00.005,n,170,7.2,5.4,10.440002,12.9,60.5,1020.02,0,0,0,0,0.028725
2022/09/05 03:51:00.005,n,173,6.12,2.88,8.64,12.9,60.5,1020.02,0,0,0,0,0.033951
2022/09/05 03:52:00.008,n,126,6.12,5.04,6.84,12.9,60.3,1019.92,0,0,0,0,0.028725
2022/09/05 03:53:00.011,n,161,7.56,4.68,11.88,12.9,60.3,1019.92,0,0,0,0,0.029602
2022/09/05 03:54:00.013,n,253,1.08,0.36,4.32,12.9,60.6,1019.92,0,0,0,0,0.027885
2022/09/05 03:55:00.002,n,312,2.16,1.8,2.52,12.9,61.5,1019.92,0,0,0,0,0.025253
2022/09/05 03:56:00.003,n,154,8.64,5.76,10.440002,12.9,60.5,1019.92,0,0,0,0,0.025253
2022/09/05 03:57:00.005,n,216,2.52,2.52,2.88,12.9,60.9,1020.02,0,0,0,0,0.027008
2022/09/05 03:58:00.007,n,79,0.36,0.36,0.72,12.9,60.8,1020.02,0,0,0,0,0.028725
2022/09/05 03:59:00.010,n,276,0.36,0,1.08,12.9,61,1020.02,0,0,0,0,0.022659
2022/09/05 04:00:00.001,n,310,1.44,0.72,2.16,12.9,61.8,1020.02,0,0,0,0,0.026093
2022/09/05 04:01:00.002,n,280,2.88,1.8,5.04,12.9,61.4,1020.02,0,0,0,0,0.024376
2022/09/05 04:02:00.010,n,174,5.04,2.16,6.12,12.8,61.4,1020.02,0,0,0,0,0.023537
2022/09/05 04:03:00.012,n,168,2.16,1.44,3.6,12.8,61.3,1020.02,0,0,0,0,0.025253
2022/09/05 04:04:00.002,n,282,3.24,2.88,3.96,12.8,61.6,1020.02,0,0,0,0,0.01915
2022/09/05 04:05:00.001,n,260,5.4,5.04,6.12,12.8,61.6,1020.02,0,0,0,0,0.024376
2022/09/05 04:06:00.001,n,186,5.76,4.32,7.2,12.8,61.4,1020.02,0,0,0,0,0.025253
2022/09/05 04:07:00.001,n,233,3.96,2.52,5.4,12.8,62.2,1020.02,0,0,0,0,0.027008
2022/09/05 04:08:00.002,n,323,6.12,2.52,10.08,12.8,62.3,1020.12,0,0,0,0,0.025253
2022/09/05 04:09:00.003,n,270,6.48,3.96,7.56,12.8,61.2,1020.02,0,0,0,0,0.025253
2022/09/05 04:10:00.006,n,278,4.68,4.32,5.4,12.7,61.6,1020.12,0,0,0,0,0.024376
2022/09/05 04:11:00.010,n,285,5.76,3.6,7.56,12.7,60.9,1020.02,0,0,0,0,0.025253
2022/09/05 04:12:00.011,n,213,3.6,2.88,4.68,12.7,61.2,1020.02,0,0,0,0,0.023537
2022/09/05 04:13:00.002,n,247,6.48,5.04,8.28,12.7,61,1020.02,0,0,0,0,0.026093
2022/09/05 04:14:00.002,n,273,9.36,9,10.08,12.7,61.2,1020.02,0,0,0,0,0.026093
2022/09/05 04:15:00.005,n,319,4.32,2.52,6.48,12.8,61.6,1020.02,0,0,0,0,0.023537
2022/09/05 04:16:00.001,n,282,5.76,5.4,6.12,12.8,61.7,1020.02,0,0,0,0,0.023537
2022/09/05 04:17:00.009,n,277,3.24,2.52,3.96,12.8,63.1,1020.02,0,0,0,0,0.025253
2022/09/05 04:18:00.002,n,208,3.24,1.8,4.68,12.8,62,1020.02,0,0,0,0,0.022659
2022/09/05 04:19:00.002,n,252,5.76,5.04,6.84,12.7,61.8,1020.02,0,0,0,0,0.020905
2022/09/05 04:20:00.003,n,277,6.48,2.52,7.56,12.7,61.9,1020.02,0,0,0,0,0.021744
2022/09/05 04:21:00.006,n,256,4.32,1.08,6.12,12.7,61.7,1020.02,0,0,0,0,0.026093
2022/09/05 04:22:00.001,n,240,6.84,6.48,7.56,12.6,61.7,1020.02,0,0,0,0,0.025253
2022/09/05 04:23:00.002,n,259,7.92,7.56,8.28,12.6,61.9,1020.12,0,0,0,0,0.021744
2022/09/05 04:24:00.002,n,253,8.64,7.92,10.8,12.6,61.9,1020.12,0,0,0,0,0.020905
2022/09/05 04:25:00.007,n,252,7.2,6.12,7.92,12.5,61.9,1020.22,0,0,0,0,0.022659
2022/09/05 04:26:00.008,n,262,7.92,7.2,8.28,12.5,62,1020.22,0,0,0,0,0.023537
2022/09/05 04:27:00.010,n,252,4.32,3.24,4.68,12.5,62.1,1020.22,0,0,0,0,0.01915
2022/09/05 04:28:00.010,n,246,5.4,5.04,6.48,12.5,62.1,1020.22,0,0,0,0,0.021744
2022/09/05 04:29:00.013,n,266,5.76,5.04,6.84,12.4,62.1,1020.22,0,0,0,0,0.024376
2022/09/05 04:30:00.017,n,230,4.32,1.08,5.76,12.4,62.2,1020.32,0,0,0,0,0.022659
2022/09/05 04:31:00.001,n,248,4.68,2.52,5.4,12.4,62.3,1020.32,0,0,0,0,0.020027
2022/09/05 04:32:00.004,n,255,6.84,5.4,7.92,12.4,62.3,1020.32,0,0,0,0,0.020905
2022/09/05 04:33:00.005,n,258,7.92,3.6,9,12.4,62.3,1020.32,0,0,0,0,0.01915
2022/09/05 04:34:00.007,n,265,5.76,4.32,7.2,12.4,62.6,1020.32,0,0,0,0,0.022659
2022/09/05 04:35:00.009,n,264,6.48,5.4,7.2,12.4,62.5,1020.42,0,0,0,0,0.022659
2022/09/05 04:36:00.001,n,224,5.04,2.16,7.56,12.3,62.6,1020.42,0,0,0,0,0.020905
2022/09/05 04:37:00.001,n,277,3.24,2.52,3.6,12.3,62.7,1020.42,0,0,0,0,0.01915
2022/09/05 04:38:00.004,n,254,6.12,5.4,8.28,12.3,62.7,1020.42,0,0,0,0,0.020905
2022/09/05 04:39:00.006,n,247,7.92,7.2,9,12.3,62.7,1020.42,0,0,0,0,0.020905
2022/09/05 04:40:00.001,n,273,3.6,2.52,4.32,12.3,62.7,1020.42,0,0,0,0,0.020905
2022/09/05 04:41:00.001,n,274,5.4,3.24,6.84,12.3,62.7,1020.42,0,0,0,0,0.018311
2022/09/05 04:42:00.001,n,219,4.32,2.52,6.48,12.3,62.7,1020.42,0,0,0,0,0.020027
2022/09/05 04:43:00.001,n,245,7.2,6.12,7.92,12.3,62.7,1020.42,0,0,0,0,0.020905
2022/09/05 04:44:00.003,n,273,7.56,5.76,8.64,12.3,62.7,1020.42,0,0,0,0,0.021744
2022/09/05 04:45:00.008,n,247,9.36,7.92,10.08,12.3,62.6,1020.42,0,0,0,0,0.018311
2022/09/05 04:46:00.011,n,258,7.2,6.48,8.28,12.3,62.7,1020.42,0,0,0,0,0.017395
2022/09/05 04:47:00.011,n,258,6.12,5.04,6.48,12.3,62.7,1020.42,0,0,0,0,0.021744
2022/09/05 04:48:00.011,n,244,5.4,2.88,7.2,12.3,62.8,1020.42,0,0,0,0,0.020905
2022/09/05 04:49:00.002,n,264,6.12,3.6,7.56,12.3,62.7,1020.52,0,0,0,0,0.020027
2022/09/05 04:50:00.001,n,225,3.6,1.8,5.04,12.2,62.9,1020.52,0,0,0,0,0.016556
2022/09/05 04:51:00.002,n,222,3.96,2.52,5.04,12.2,62.8,1020.52,0,0,0,0,0.015678
2022/09/05 04:52:00.006,n,216,4.68,3.6,5.04,12.2,62.9,1020.42,0,0,0,0,0.025253
2022/09/05 04:53:00.007,n,230,3.6,1.44,4.68,12.2,62.8,1020.42,0,0,0,0,0.027885
2022/09/05 04:54:00.010,n,343,2.52,1.44,3.24,12.2,63.2,1020.42,0,0,0,0,0.028725
2022/09/05 04:55:00.011,n,248,2.52,1.44,3.24,12.2,63,1020.42,0,0,0,0,0.026131